| time (UTC) | temp F | wind direction | speed MPH | gust MPH | rain 1hr in | rain 24hr in | rain mn in | humidity % | barometer mb |
| 20260503183506 | 46 | 90 | 5.0 | 7.0 | 0.00 | 0.00 | 0.00 | 68 | 1010.1 |
| 20260503183007 | 47 | 94 | 5.0 | 7.0 | 0.00 | 0.00 | 0.00 | 68 | 1010.1 |
| 20260503182506 | 47 | 52 | 5.0 | 7.0 | 0.00 | 0.00 | 0.00 | 67 | 1010.1 |
| 20260503182007 | 48 | 41 | 5.0 | 5.0 | 0.00 | 0.00 | 0.00 | 67 | 1010.1 |
| 20260503181506 | 48 | 29 | 5.0 | 7.0 | 0.00 | 0.00 | 0.00 | 67 | 1010.1 |
| 20260503181006 | 48 | 34 | 5.0 | 7.0 | 0.00 | 0.00 | 0.00 | 67 | 1010.1 |
| 20260503180506 | 48 | 18 | 5.0 | 9.0 | 0.00 | 0.00 | 0.00 | 67 | 1010.1 |
| 20260503180005 | 47 | 16 | 7.0 | 9.0 | 0.00 | 0.00 | 0.00 | 67 | 1010.1 |
| 20260503175506 | 47 | 21 | 5.0 | 7.0 | 0.00 | 0.00 | 0.00 | 67 | 1010.1 |
| 20260503174506 | 48 | 33 | 5.0 | 7.0 | 0.00 | 0.00 | 0.00 | 66 | 1010.1 |
| 20260503174007 | 48 | 35 | 5.0 | 7.0 | 0.00 | 0.00 | 0.00 | 66 | 1010.1 |
| 20260503173507 | 48 | 23 | 5.0 | 9.0 | 0.00 | 0.00 | 0.00 | 66 | 1010.1 |
| 20260503172506 | 48 | 353 | 5.0 | 9.0 | 0.00 | 0.00 | 0.00 | 66 | 1010.1 |
| 20260503172006 | 48 | 13 | 5.0 | 7.0 | 0.00 | 0.00 | 0.00 | 67 | 1010.1 |
| 20260503171506 | 48 | 24 | 5.0 | 9.0 | 0.00 | 0.00 | 0.00 | 66 | 1010.7 |
| 20260503171007 | 48 | 14 | 6.0 | 9.0 | 0.00 | 0.00 | 0.00 | 66 | 1011.0 |
| 20260503170506 | 48 | 22 | 7.0 | 7.0 | 0.00 | 0.00 | 0.00 | 66 | 1011.1 |
| 20260503151007 | 47 | 56 | 7.0 | 7.0 | 0.00 | 0.00 | 0.00 | 66 | 1012.1 |
| 20260503150506 | 48 | 51 | 5.0 | 9.0 | 0.00 | 0.00 | 0.00 | 65 | 1012.1 |
| 20260503131006 | 46 | 256 | 9.0 | 14.0 | 0.00 | 0.00 | 0.00 | 64 | 1013.1 |
| 20260503130506 | 46 | 257 | 9.0 | 14.0 | 0.00 | 0.00 | 0.00 | 64 | 1013.1 |
| 20260503110508 | 39 | 259 | 9.0 | 12.0 | 0.00 | 0.00 | 0.00 | 79 | 1013.7 |
| 20260503090508 | 39 | 257 | 9.0 | 14.0 | 0.00 | 0.00 | 0.00 | 78 | 1013.1 |
| 20260503081507 | 40 | 247 | 9.0 | 9.0 | 0.00 | 0.00 | 0.00 | 78 | 1013.1 |
| 20260503080508 | 40 | 249 | 7.0 | 9.0 | 0.00 | 0.00 | 0.00 | 78 | 1013.1 |
| 20260503072506 | 41 | 252 | 9.0 | 9.0 | 0.00 | 0.00 | 0.00 | 77 | 1013.1 |
| 20260503072007 | 41 | 259 | 9.0 | 9.0 | 0.00 | 0.00 | 0.00 | 77 | 1013.1 |
| 20260503071507 | 41 | 258 | 9.0 | 9.0 | 0.00 | 0.00 | 0.00 | 77 | 1013.1 |
| 20260503054507 | 42 | 256 | 7.0 | 9.0 | 0.00 | 0.00 | 0.00 | 72 | 1013.1 |
| 20260503054008 | 43 | 258 | 7.0 | 9.0 | 0.00 | 0.00 | 0.00 | 72 | 1013.1 |
| 20260503053507 | 43 | 261 | 9.0 | 9.0 | 0.00 | 0.00 | 0.00 | 71 | 1013.1 |
| 20260503053008 | 43 | 251 | 9.0 | 9.0 | 0.00 | 0.00 | 0.00 | 71 | 1013.1 |
| 20260503052506 | 43 | 254 | 9.0 | 9.0 | 0.00 | 0.00 | 0.00 | 70 | 1013.1 |
| 20260503052008 | 43 | 253 | 9.0 | 9.0 | 0.00 | 0.00 | 0.00 | 70 | 1013.1 |
| 20260503051508 | 43 | 264 | 9.0 | 9.0 | 0.00 | 0.00 | 0.00 | 69 | 1013.1 |
| 20260503051007 | 43 | 258 | 9.0 | 9.0 | 0.00 | 0.00 | 0.00 | 69 | 1013.1 |
| 20260503050507 | 44 | 262 | 7.0 | 9.0 | 0.00 | 0.00 | 0.00 | 69 | 1013.1 |
| 20260503050007 | 44 | 255 | 7.0 | 9.0 | 0.00 | 0.00 | 0.00 | 69 | 1013.2 |
| 20260503045507 | 44 | 242 | 7.0 | 9.0 | 0.00 | 0.00 | 0.00 | 68 | 1013.2 |
| 20260503045007 | 44 | 253 | 7.0 | 9.0 | 0.00 | 0.00 | 0.00 | 68 | 1013.6 |
| 20260503044506 | 44 | 258 | 7.0 | 9.0 | 0.00 | 0.00 | 0.00 | 68 | 1014.0 |
| 20260503044007 | 44 | 257 | 7.0 | 9.0 | 0.00 | 0.00 | 0.00 | 68 | 1013.7 |
| 20260503043508 | 44 | 278 | 7.0 | 9.0 | 0.00 | 0.00 | 0.00 | 68 | 1014.1 |
| 20260503043008 | 44 | 271 | 7.0 | 9.0 | 0.00 | 0.00 | 0.00 | 68 | 1014.1 |
| 20260503042507 | 44 | 275 | 7.0 | 9.0 | 0.00 | 0.00 | 0.00 | 67 | 1014.1 |
| 20260503042008 | 44 | 273 | 7.0 | 9.0 | 0.00 | 0.00 | 0.00 | 68 | 1014.1 |
| 20260503041506 | 44 | 273 | 7.0 | 9.0 | 0.00 | 0.00 | 0.00 | 67 | 1014.1 |
| 20260503040508 | 44 | 272 | 7.0 | 7.0 | 0.00 | 0.00 | 0.00 | 67 | 1014.1 |
| 20260503040007 | 44 | 278 | 7.0 | 9.0 | 0.00 | 0.00 | 0.00 | 67 | 1014.1 |
| 20260503035507 | 45 | 271 | 7.0 | 12.0 | 0.00 | 0.00 | 0.00 | 68 | 1014.1 |
| 20260503034007 | 44 | 270 | 7.0 | 9.0 | 0.00 | 0.00 | 0.00 | 68 | 1014.1 |
| 20260503033507 | 44 | 279 | 7.0 | 9.0 | 0.00 | 0.00 | 0.00 | 68 | 1014.1 |
| 20260503032506 | 45 | 272 | 7.0 | 9.0 | 0.00 | 0.00 | 0.00 | 69 | 1014.1 |
| 20260503032007 | 45 | 271 | 7.0 | 9.0 | 0.00 | 0.00 | 0.00 | 69 | 1014.1 |
| 20260503031507 | 45 | 273 | 7.0 | 9.0 | 0.00 | 0.00 | 0.00 | 69 | 1014.1 |
| 20260503031007 | 45 | 269 | 7.0 | 9.0 | 0.00 | 0.00 | 0.00 | 69 | 1014.1 |
| 20260503030507 | 45 | 266 | 7.0 | 9.0 | 0.00 | 0.00 | 0.00 | 69 | 1014.1 |
| 20260503030007 | 45 | 281 | 7.0 | 9.0 | 0.00 | 0.00 | 0.00 | 70 | 1014.1 |
| 20260503025506 | 45 | 272 | 7.0 | 9.0 | 0.00 | 0.00 | 0.00 | 71 | 1014.1 |
| 20260503025007 | 45 | 277 | 7.0 | 9.0 | 0.00 | 0.00 | 0.00 | 71 | 1014.1 |
| 20260503024507 | 45 | 274 | 7.0 | 9.0 | 0.00 | 0.00 | 0.00 | 71 | 1014.1 |
| 20260503024007 | 45 | 283 | 7.0 | 9.0 | 0.00 | 0.00 | 0.00 | 71 | 1014.1 |
| 20260503023507 | 45 | 267 | 7.0 | 9.0 | 0.00 | 0.00 | 0.00 | 71 | 1014.1 |
| 20260503023007 | 45 | 267 | 7.0 | 9.0 | 0.00 | 0.00 | 0.00 | 71 | 1014.1 |
| 20260503022506 | 45 | 267 | 7.0 | 9.0 | 0.00 | 0.00 | 0.00 | 71 | 1014.1 |
| 20260503022007 | 45 | 265 | 7.0 | 9.0 | 0.00 | 0.00 | 0.00 | 72 | 1014.1 |
| 20260503021507 | 45 | 267 | 7.0 | 9.0 | 0.00 | 0.00 | 0.00 | 72 | 1014.1 |
| 20260503021008 | 45 | 266 | 7.0 | 9.0 | 0.00 | 0.00 | 0.00 | 72 | 1014.1 |
| 20260503020507 | 45 | 270 | 7.0 | 9.0 | 0.00 | 0.00 | 0.00 | 72 | 1014.1 |
| 20260503020007 | 45 | 269 | 7.0 | 9.0 | 0.00 | 0.00 | 0.00 | 72 | 1014.1 |
| 20260503015507 | 45 | 258 | 7.0 | 9.0 | 0.00 | 0.00 | 0.00 | 72 | 1014.1 |
| 20260503015007 | 45 | 275 | 7.0 | 9.0 | 0.00 | 0.00 | 0.00 | 71 | 1014.1 |
| 20260503014507 | 45 | 260 | 7.0 | 9.0 | 0.00 | 0.00 | 0.00 | 71 | 1014.1 |
| 20260503014007 | 45 | 260 | 9.0 | 9.0 | 0.00 | 0.00 | 0.00 | 71 | 1014.1 |
| 20260503013507 | 45 | 260 | 9.0 | 9.0 | 0.00 | 0.00 | 0.00 | 71 | 1014.1 |
| 20260503012007 | 45 | 255 | 8.0 | 12.0 | 0.00 | 0.00 | 0.00 | 71 | 1014.1 |
| 20260503011506 | 45 | 244 | 9.0 | 12.0 | 0.00 | 0.00 | 0.00 | 71 | 1014.1 |
| 20260503011007 | 45 | 257 | 9.0 | 9.0 | 0.00 | 0.00 | 0.00 | 71 | 1014.1 |
| 20260503010507 | 45 | 263 | 7.0 | 9.0 | 0.00 | 0.00 | 0.00 | 71 | 1014.1 |
| 20260503010006 | 45 | 251 | 7.0 | 9.0 | 0.00 | 0.00 | 0.00 | 70 | 1014.1 |
| 20260503005506 | 45 | 251 | 7.0 | 9.0 | 0.00 | 0.00 | 0.00 | 70 | 1014.1 |
| 20260503004506 | 45 | 248 | 7.0 | 7.0 | 0.00 | 0.00 | 0.00 | 70 | 1014.1 |
| 20260503004007 | 45 | 253 | 7.0 | 9.0 | 0.00 | 0.00 | 0.00 | 70 | 1014.1 |
| 20260503003507 | 45 | 240 | 7.0 | 9.0 | 0.00 | 0.00 | 0.00 | 69 | 1014.1 |
| 20260503003007 | 45 | 242 | 9.0 | 12.0 | 0.00 | 0.00 | 0.00 | 70 | 1014.1 |
| 20260503002507 | 45 | 263 | 9.0 | 12.0 | 0.00 | 0.00 | 0.00 | 69 | 1014.1 |
| 20260503002007 | 45 | 249 | 9.0 | 12.0 | 0.00 | 0.00 | 0.00 | 69 | 1013.9 |
| 20260503001506 | 45 | 241 | 9.0 | 14.0 | 0.00 | 0.00 | 0.00 | 69 | 1013.1 |
| 20260503001007 | 45 | 248 | 10.0 | 14.0 | 0.00 | 0.00 | 0.00 | 69 | 1013.3 |
| 20260503000507 | 45 | 250 | 9.0 | 14.0 | 0.00 | 0.00 | 0.00 | 69 | 1013.1 |
| 20260503000006 | 45 | 249 | 9.0 | 12.0 | 0.00 | 0.00 | 0.00 | 69 | 1013.1 |
| 20260502235506 | 45 | 252 | 9.0 | 14.0 | 0.00 | 0.00 | 0.00 | 68 | 1013.1 |
| 20260502235007 | 45 | 245 | 12.0 | 14.0 | 0.00 | 0.00 | 0.00 | 68 | 1013.1 |
| 20260502234506 | 45 | 252 | 12.0 | 14.0 | 0.00 | 0.00 | 0.00 | 68 | 1013.1 |
| 20260502234007 | 46 | 252 | 12.0 | 14.0 | 0.00 | 0.00 | 0.00 | 67 | 1013.1 |
| 20260502233507 | 46 | 266 | 12.0 | 16.0 | 0.00 | 0.00 | 0.00 | 67 | 1013.1 |
| 20260502233007 | 46 | 257 | 12.0 | 16.0 | 0.00 | 0.00 | 0.00 | 67 | 1013.1 |
| 20260502232506 | 46 | 259 | 12.0 | 16.0 | 0.00 | 0.00 | 0.00 | 67 | 1013.1 |
| 20260502232007 | 46 | 249 | 14.0 | 16.0 | 0.00 | 0.00 | 0.00 | 67 | 1013.1 |
| 20260502231506 | 46 | 253 | 12.0 | 16.0 | 0.00 | 0.00 | 0.00 | 66 | 1013.1 |
| 20260502231007 | 46 | 265 | 14.0 | 16.0 | 0.00 | 0.00 | 0.00 | 65 | 1013.1 |
| 20260502230507 | 46 | 262 | 14.0 | 16.0 | 0.00 | 0.00 | 0.00 | 65 | 1013.1 |
| 20260502230006 | 46 | 266 | 14.0 | 18.0 | 0.00 | 0.00 | 0.00 | 65 | 1013.1 |
| 20260502225507 | 46 | 251 | 14.0 | 18.0 | 0.00 | 0.00 | 0.00 | 65 | 1013.1 |
| 20260502225006 | 46 | 261 | 14.0 | 18.0 | 0.00 | 0.00 | 0.00 | 64 | 1013.1 |
| 20260502224506 | 47 | 266 | 10.0 | 16.0 | 0.00 | 0.00 | 0.00 | 62 | 1013.1 |
| 20260502224007 | 47 | 288 | 7.0 | 14.0 | 0.00 | 0.00 | 0.00 | 61 | 1013.1 |
| 20260502223507 | 47 | 286 | 9.0 | 14.0 | 0.00 | 0.00 | 0.00 | 61 | 1013.1 |
| 20260502223006 | 47 | 290 | 9.0 | 14.0 | 0.00 | 0.00 | 0.00 | 61 | 1013.1 |
| 20260502222506 | 47 | 308 | 9.0 | 12.0 | 0.00 | 0.00 | 0.00 | 61 | 1013.1 |
| 20260502222006 | 47 | 297 | 7.0 | 9.0 | 0.00 | 0.00 | 0.00 | 62 | 1013.1 |
| 20260502221506 | 47 | 290 | 7.0 | 9.0 | 0.00 | 0.00 | 0.00 | 61 | 1013.1 |
| 20260502221007 | 47 | 306 | 7.0 | 12.0 | 0.00 | 0.00 | 0.00 | 62 | 1013.1 |
| 20260502220506 | 47 | 313 | 9.0 | 14.0 | 0.00 | 0.00 | 0.00 | 62 | 1013.1 |
| 20260502220006 | 47 | 294 | 8.0 | 14.0 | 0.00 | 0.00 | 0.00 | 62 | 1013.1 |
| 20260502215506 | 47 | 344 | 9.0 | 14.0 | 0.00 | 0.00 | 0.00 | 62 | 1013.1 |
| 20260502214506 | 48 | 317 | 5.0 | 12.0 | 0.00 | 0.00 | 0.00 | 63 | 1013.1 |
| 20260502214007 | 48 | 282 | 2.0 | 9.0 | 0.00 | 0.00 | 0.00 | 63 | 1013.1 |
| 20260502213506 | 48 | 273 | 2.0 | 12.0 | 0.00 | 0.00 | 0.00 | 63 | 1013.1 |
| 20260502213006 | 47 | 323 | 5.0 | 12.0 | 0.00 | 0.00 | 0.00 | 63 | 1013.1 |
| 20260502212506 | 47 | 300 | 5.0 | 12.0 | 0.00 | 0.00 | 0.00 | 64 | 1013.1 |
| 20260502212006 | 48 | 341 | 5.0 | 9.0 | 0.00 | 0.00 | 0.00 | 63 | 1013.1 |
| 20260502211506 | 48 | 289 | 5.0 | 9.0 | 0.00 | 0.00 | 0.00 | 64 | 1013.1 |
| 20260502210507 | 47 | 291 | 5.0 | 12.0 | 0.00 | 0.00 | 0.00 | 65 | 1013.1 |
| 20260502205506 | 47 | 323 | 7.0 | 14.0 | 0.00 | 0.00 | 0.00 | 65 | 1013.1 |
| 20260502205007 | 47 | 323 | 9.0 | 14.0 | 0.00 | 0.00 | 0.00 | 65 | 1013.1 |
| 20260502204507 | 47 | 305 | 7.0 | 14.0 | 0.00 | 0.00 | 0.00 | 65 | 1013.1 |
| 20260502204006 | 47 | 332 | 6.0 | 12.0 | 0.00 | 0.00 | 0.00 | 65 | 1013.1 |
| 20260502203506 | 47 | 314 | 4.0 | 12.0 | 0.00 | 0.00 | 0.00 | 66 | 1013.1 |
| 20260502203006 | 47 | 341 | 5.0 | 14.0 | 0.00 | 0.00 | 0.00 | 66 | 1013.1 |
| 20260502202006 | 47 | 268 | 7.0 | 14.0 | 0.00 | 0.00 | 0.00 | 65 | 1013.1 |
| 20260502201506 | 47 | 297 | 5.0 | 12.0 | 0.00 | 0.00 | 0.00 | 65 | 1013.1 |
| 20260502201007 | 47 | 311 | 5.0 | 12.0 | 0.00 | 0.00 | 0.00 | 66 | 1013.1 |
| 20260502200506 | 47 | 295 | 7.0 | 12.0 | 0.00 | 0.00 | 0.00 | 66 | 1013.1 |
| 20260502200006 | 47 | 321 | 7.0 | 12.0 | 0.00 | 0.00 | 0.00 | 67 | 1013.1 |
| 20260502195506 | 47 | 295 | 3.0 | 12.0 | 0.00 | 0.00 | 0.00 | 67 | 1013.1 |
| 20260502195007 | 47 | 292 | 5.0 | 12.0 | 0.00 | 0.00 | 0.00 | 67 | 1013.1 |
| 20260502194007 | 47 | 301 | 3.0 | 12.0 | 0.00 | 0.00 | 0.00 | 67 | 1013.1 |
| 20260502193506 | 47 | 340 | 9.0 | 12.0 | 0.00 | 0.00 | 0.00 | 67 | 1013.1 |
| 20260502193007 | 47 | 291 | 4.0 | 12.0 | 0.00 | 0.00 | 0.00 | 67 | 1013.1 |
| 20260502192007 | 46 | 298 | 9.0 | 16.0 | 0.00 | 0.00 | 0.00 | 68 | 1013.1 |
| 20260502191506 | 47 | 295 | 7.0 | 16.0 | 0.00 | 0.00 | 0.00 | 68 | 1013.1 |
| 20260502190506 | 47 | 323 | 9.0 | 16.0 | 0.00 | 0.00 | 0.00 | 68 | 1013.1 |
| 20260502190006 | 47 | 308 | 9.0 | 16.0 | 0.00 | 0.00 | 0.00 | 67 | 1013.1 |
| 20260502185506 | 47 | 291 | 9.0 | 16.0 | 0.00 | 0.00 | 0.00 | 67 | 1013.1 |
| 20260502184506 | 48 | 328 | 5.0 | 16.0 | 0.00 | 0.00 | 0.00 | 67 | 1013.1 |
| 20260502184007 | 48 | 268 | 5.0 | 16.0 | 0.00 | 0.00 | 0.00 | 67 | 1013.1 |